TimeCDT,TemperatureF,Dew PointF,Humidity,Sea Level PressureIn,VisibilityMPH,Wind Direction,Wind SpeedMPH,Gust SpeedMPH,PrecipitationIn,Events,Conditions,WindDirDegrees,DateUTC
12:15 AM,78.8,68.0,69,29.82,10.0,Calm,Calm,-,N/A,,Clear,0,2013-09-01 05:15:00
12:35 AM,78.8,68.0,69,29.83,10.0,ENE,3.5,-,N/A,,Clear,60,2013-09-01 05:35:00
12:55 AM,78.8,68.0,69,29.83,10.0,Calm,Calm,-,N/A,,Clear,0,2013-09-01 05:55:00
1:15 AM,75.2,66.2,73,29.82,10.0,Calm,Calm,-,N/A,,Clear,0,2013-09-01 06:15:00
1:35 AM,77.0,66.2,69,29.82,10.0,Calm,Calm,-,N/A,,Clear,0,2013-09-01 06:35:00
1:55 AM,75.2,66.2,73,29.83,10.0,Calm,Calm,-,N/A,,Clear,0,2013-09-01 06:55:00
2:15 AM,75.2,68.0,78,29.82,10.0,Calm,Calm,-,N/A,,Clear,0,2013-09-01 07:15:00
2:35 AM,78.8,66.2,65,29.85,10.0,WNW,16.1,23.0,N/A,,Clear,300,2013-09-01 07:35:00
2:55 AM,78.8,64.4,61,29.84,10.0,NW,15.0,21.9,N/A,,Clear,320,2013-09-01 07:55:00
3:15 AM,78.8,64.4,61,29.85,10.0,NW,17.3,25.3,N/A,,Partly Cloudy,320,2013-09-01 08:15:00
3:35 AM,77.0,66.2,69,29.85,10.0,WNW,17.3,25.3,N/A,,Clear,290,2013-09-01 08:35:00
3:55 AM,75.2,64.4,69,29.86,10.0,NW,21.9,32.2,N/A,,Clear,310,2013-09-01 08:55:00
4:15 AM,77.0,64.4,65,29.88,10.0,NW,21.9,27.6,N/A,,Scattered Clouds,320,2013-09-01 09:15:00
4:35 AM,73.4,64.4,73,29.90,10.0,NNW,13.8,20.7,N/A,,Mostly Cloudy,330,2013-09-01 09:35:00
4:55 AM,71.6,64.4,78,29.90,10.0,NNW,13.8,23.0,N/A,,Overcast,340,2013-09-01 09:55:00
5:15 AM,71.6,64.4,78,29.88,10.0,NNW,9.2,17.3,N/A,,Mostly Cloudy,340,2013-09-01 10:15:00
5:35 AM,71.6,62.6,73,29.87,10.0,NNW,10.4,-,N/A,,Scattered Clouds,340,2013-09-01 10:35:00
5:55 AM,73.4,62.6,69,29.88,10.0,NW,8.1,-,N/A,,Partly Cloudy,320,2013-09-01 10:55:00
6:15 AM,73.4,62.6,69,29.87,10.0,NNW,15.0,-,N/A,,Clear,330,2013-09-01 11:15:00
6:35 AM,75.2,60.8,61,29.85,10.0,NW,12.7,19.6,N/A,,Partly Cloudy,320,2013-09-01 11:35:00
6:55 AM,77.0,60.8,57,29.86,10.0,NNW,10.4,-,N/A,,Clear,340,2013-09-01 11:55:00
7:15 AM,75.2,60.8,61,29.87,10.0,WNW,9.2,-,N/A,,Clear,290,2013-09-01 12:15:00
7:35 AM,75.2,60.8,61,29.88,10.0,NNW,9.2,-,N/A,,Clear,330,2013-09-01 12:35:00
7:55 AM,78.8,60.8,54,29.89,10.0,NNW,13.8,21.9,N/A,,Clear,340,2013-09-01 12:55:00
8:35 AM,77.0,62.6,61,29.90,10.0,North,21.9,26.5,N/A,,Clear,360,2013-09-01 13:35:00
8:55 AM,75.2,62.6,65,29.93,10.0,NNE,15.0,21.9,N/A,,Clear,30,2013-09-01 13:55:00
9:15 AM,75.2,64.4,69,29.95,10.0,NE,18.4,21.9,N/A,,Clear,50,2013-09-01 14:15:00
9:55 AM,73.4,64.4,73,29.98,10.0,NE,13.8,-,N/A,,Overcast,40,2013-09-01 14:55:00
10:15 AM,73.4,64.4,73,30.00,10.0,NE,11.5,-,N/A,,Mostly Cloudy,50,2013-09-01 15:15:00
10:35 AM,73.4,64.4,73,30.01,10.0,ENE,8.1,-,N/A,,Scattered Clouds,60,2013-09-01 15:35:00
10:55 AM,75.2,62.6,65,30.01,10.0,NE,11.5,-,N/A,,Scattered Clouds,50,2013-09-01 15:55:00
11:15 AM,75.2,64.4,69,30.01,10.0,NE,10.4,-,N/A,,Clear,40,2013-09-01 16:15:00
11:35 AM,78.8,64.4,61,30.01,10.0,NNE,13.8,17.3,N/A,,Clear,30,2013-09-01 16:35:00
11:55 AM,80.6,64.4,58,30.00,10.0,NNE,11.5,-,N/A,,Clear,30,2013-09-01 16:55:00
12:15 PM,80.6,66.2,61,30.00,10.0,NE,13.8,-,N/A,,Clear,40,2013-09-01 17:15:00
12:35 PM,82.4,66.2,58,30.00,10.0,NNE,15.0,18.4,N/A,,Clear,30,2013-09-01 17:35:00
12:55 PM,84.2,66.2,55,30.00,10.0,NE,13.8,17.3,N/A,,Clear,40,2013-09-01 17:55:00
1:15 PM,86.0,66.2,51,29.99,10.0,NE,13.8,23.0,N/A,,Clear,40,2013-09-01 18:15:00
1:35 PM,86.0,64.4,48,29.99,10.0,NE,15.0,20.7,N/A,,Clear,40,2013-09-01 18:35:00
1:55 PM,87.8,62.6,43,29.99,10.0,NE,16.1,23.0,N/A,,Clear,50,2013-09-01 18:55:00
2:15 PM,87.8,62.6,43,29.99,10.0,North,11.5,20.7,N/A,,Clear,10,2013-09-01 19:15:00
2:35 PM,87.8,62.6,43,29.99,10.0,NE,9.2,16.1,N/A,,Clear,40,2013-09-01 19:35:00
2:55 PM,89.6,60.8,38,29.98,10.0,NNE,12.7,18.4,N/A,,Clear,20,2013-09-01 19:55:00
3:15 PM,89.6,60.8,38,29.98,10.0,NE,11.5,16.1,N/A,,Clear,40,2013-09-01 20:15:00
3:35 PM,89.6,60.8,38,29.97,10.0,NNE,12.7,-,N/A,,Clear,20,2013-09-01 20:35:00
3:55 PM,89.6,59.0,36,29.97,10.0,NNE,9.2,16.1,N/A,,Clear,20,2013-09-01 20:55:00
4:35 PM,89.6,60.8,38,29.97,10.0,NE,12.7,-,N/A,,Clear,50,2013-09-01 21:35:00
4:55 PM,89.6,57.2,33,29.97,10.0,NNE,8.1,-,N/A,,Clear,20,2013-09-01 21:55:00
5:15 PM,89.6,53.6,29,29.96,10.0,North,15.0,18.4,N/A,,Clear,360,2013-09-01 22:15:00
5:35 PM,89.6,55.4,31,29.96,10.0,North,11.5,-,N/A,,Clear,10,2013-09-01 22:35:00
5:55 PM,89.6,53.6,29,29.96,10.0,North,13.8,18.4,N/A,,Clear,10,2013-09-01 22:55:00
6:15 PM,87.8,53.6,31,29.97,10.0,NNE,13.8,-,N/A,,Clear,20,2013-09-01 23:15:00
6:35 PM,87.8,51.8,29,29.97,10.0,NNE,10.4,-,N/A,,Clear,30,2013-09-01 23:35:00
6:55 PM,86.0,51.8,31,29.97,10.0,NE,12.7,-,N/A,,Clear,40,2013-09-01 23:55:00
7:15 PM,84.2,51.8,33,29.97,10.0,NE,10.4,-,N/A,,Clear,40,2013-09-02 00:15:00
7:35 PM,82.4,50.0,32,29.97,10.0,NNE,9.2,-,N/A,,Clear,30,2013-09-02 00:35:00
7:55 PM,80.6,50.0,34,29.98,10.0,NE,9.2,-,N/A,,Clear,40,2013-09-02 00:55:00
8:15 PM,77.0,51.8,41,29.99,10.0,NE,8.1,-,N/A,,Clear,40,2013-09-02 01:15:00
8:35 PM,75.2,51.8,44,30.00,10.0,NNE,6.9,-,N/A,,Clear,30,2013-09-02 01:35:00
8:55 PM,73.4,51.8,47,30.01,10.0,NE,8.1,-,N/A,,Clear,40,2013-09-02 01:55:00
9:15 PM,73.4,51.8,47,30.02,10.0,NE,9.2,-,N/A,,Clear,40,2013-09-02 02:15:00
9:35 PM,73.4,51.8,47,30.02,10.0,NE,8.1,-,N/A,,Clear,50,2013-09-02 02:35:00
9:55 PM,71.6,53.6,53,30.03,10.0,NE,6.9,-,N/A,,Clear,50,2013-09-02 02:55:00
10:15 PM,71.6,53.6,53,30.04,10.0,NE,5.8,-,N/A,,Clear,50,2013-09-02 03:15:00
10:35 PM,69.8,53.6,56,30.04,10.0,ENE,4.6,-,N/A,,Clear,60,2013-09-02 03:35:00
10:55 PM,68.0,53.6,60,30.04,10.0,ENE,3.5,-,N/A,,Clear,60,2013-09-02 03:55:00
11:15 PM,66.2,53.6,64,30.05,10.0,Calm,Calm,-,N/A,,Clear,0,2013-09-02 04:15:00
11:35 PM,64.4,53.6,68,30.06,10.0,Calm,Calm,-,N/A,,Clear,0,2013-09-02 04:35:00
11:55 PM,62.6,53.6,72,30.06,10.0,Calm,Calm,-,N/A,,Clear,0,2013-09-02 04:55:00